#timestamp,LO_Frequency,Hit,StdDev 
1532350815.7,286046998.9,N
1532350835.6,286046999.1,N
1532350855.4,286047000.6,N
1532350875.2,286047001.5,N
1532350895.1,286047002.8,N
1532350896.0,286047002.8,N
1532350915.8,286047001.2,N
1532350935.6,286046998.1,N
1532350955.5,286046998.8,N
1532350975.3,286046999.8,N
1532350995.2,286047000.3,N
1532351015.9,286047001.0,N
1532351035.7,286047002.6,N
1532351055.6,286047001.3,N
1532351075.4,286047002.2,N
1532351095.2,286047000.6,N
1532351115.1,286047001.2,N
1532351116.0,286047001.2,N
1532351135.8,286047000.7,N
1532351155.7,286047000.9,N
1532351175.5,286047000.4,N
1532351195.3,286047004.3,Y
1532351215.2,286047002.5,P
1532351235.0,286047000.9,N
1532351235.9,286047000.9,N
1532351285.8,286046998.3,E
1532351295.7,286047000.7,N
1532351315.5,286047000.4,P
1532351335.4,286047002.4,P
1532351355.2,286047002.6,N
1532351375.1,286046999.7,N
1532351376.0,286046999.7,N
1532351395.8,286047000.2,N
1532351415.6,286046999.9,N
1532351435.5,286046999.9,N
1532351455.3,286047002.3,N
1532351475.1,286047000.6,N
1532351495.9,286047001.2,N
1532351515.7,286046998.6,N
1532351535.6,286047000.9,N
1532351555.4,286047000.2,N
1532351575.2,286047000.4,N
1532351595.1,286047000.0,N
1532351596.0,286047000.0,N
1532351615.8,286047000.2,N
1532351635.6,286047001.0,N
1532351655.5,286047000.8,N
1532351675.3,286047002.1,N
1532351695.2,286047002.4,N
1532351715.9,286046999.7,N
1532351735.7,286046998.5,N
1532351755.6,286046998.6,N
1532351775.4,286046998.3,N
1532351795.2,286047001.2,N
1532351815.1,286047000.5,N
1532351816.0,286047000.5,N
1532351835.8,286047000.7,N
1532351855.7,286046998.6,N
1532351875.5,286046998.5,N
1532351895.3,286046998.7,N
1532351915.2,286047000.9,N
1532351935.0,286047001.0,N
1532351935.9,286047001.0,N
1532351955.8,286046998.2,N
1532351975.6,286046998.5,N
1532351995.4,286046998.5,N
1532352015.3,286046998.2,N
1532352035.1,286047002.3,N
1532352055.8,286047002.4,N
1532352075.7,286047002.2,N
1532352095.5,286047007.4,Y
1532352115.4,286047008.7,P
1532352135.2,286047007.3,N
1532352155.0,286047005.1,N
1532352155.9,286047005.1,N
1532352175.8,286047004.3,N
1532352195.6,286046999.9,N
1532352215.4,286047000.9,N
1532352235.3,286046998.5,N
1532352255.1,286046999.9,N
1532352275.9,286047000.8,N
1532352295.7,286047000.5,N
1532352315.5,286047000.9,N
1532352335.4,286047000.5,N
1532352355.2,286047000.8,N
1532352375.0,286047000.3,N
1532352376.0,286047000.3,N
1532352395.8,286046997.4,N
1532352415.6,286046998.0,N
1532352435.5,286046996.5,N
1532352455.3,286046995.9,N
1532352475.1,286046995.1,N
1532352495.9,286046994.9,N
1532352515.7,286046995.1,N
1532352535.5,286046995.5,N
1532352555.4,286046995.0,N
1532352575.2,286046995.5,N
1532352595.1,286046995.4,N
1532352596.0,286046995.4,N
1532352615.8,286046997.5,N
1532352635.6,286046998.6,N
1532352655.5,286046999.5,N
1532352675.3,286046997.8,N
1532352695.2,286046995.3,N
1532352715.9,286046997.6,N
1532352735.7,286046997.6,N
1532352755.6,286046997.9,N
1532352775.4,286046997.7,N
1532352795.2,286046995.0,N
1532352815.1,286046998.0,N
1532352816.0,286046998.0,N
1532352835.8,286046997.9,N
1532352855.7,286046997.2,N
1532352875.5,286046996.5,N
1532352895.3,286046997.9,N
1532352915.2,286046995.0,Y
1532352935.0,286046998.3,P
1532352935.9,286046998.3,N
1532352955.8,286047001.2,N
1532352975.6,286047000.7,N
1532352995.4,286047002.6,N
1532353015.3,286047000.6,N
1532353035.1,286047000.6,N
1532353036.0,286047000.6,N
1532353055.8,286046999.8,N
1532353075.7,286047000.1,N
1532353095.5,286046999.8,N
1532353115.4,286047011.9,Y
1532353135.2,286047002.1,P
1532353155.0,286047001.8,N
1532353155.9,286047001.8,N
1532353175.8,286047002.6,Y
1532353195.6,286047000.2,P
1532353215.4,286046999.9,N
1532353235.3,286047000.7,N
1532353255.1,286046999.7,N
1532353275.9,286047002.7,Y
1532353295.7,286047001.4,P
1532353315.5,286047002.0,P
1532353335.4,286047002.2,P
1532353355.2,286047002.0,N
1532353375.1,286047001.5,N
1532353376.0,286047001.5,N
1532353395.8,286047000.4,N
1532353415.6,286047000.6,N
1532353435.5,286047000.6,N
1532353455.3,286047000.3,N
1532353475.1,286047000.4,N
1532353495.9,286047002.1,N
1532353515.7,286047002.5,Y
1532353535.6,286046998.3,P
1532353555.4,286046998.1,N
1532353575.2,286047000.6,N
1532353595.1,286047001.1,N
1532353596.0,286047001.1,N
1532353615.8,286046998.4,N
1532353635.6,286047001.2,N
1532353655.5,286047002.8,N
1532353675.3,286047002.4,N
1532353695.2,286047001.1,N
1532353715.9,286047000.6,N
1532353735.7,286046998.8,N
1532353755.6,286046998.9,N
1532353775.4,286046999.6,N
1532353795.2,286046999.4,N
1532353815.1,286046999.4,N
1532353816.0,286046999.4,N
1532353835.8,286046999.4,N
1532353855.7,286046996.6,N
1532353875.5,286046999.6,N
1532353895.3,286046997.1,N
1532353915.2,286046999.6,N
1532353935.0,286046996.8,N
1532353935.9,286046996.8,N
1532353955.8,286046999.5,N
1532353975.6,286047001.2,N
1532353995.4,286046998.9,N
1532354015.3,286046999.3,N
1532354035.1,286046998.1,N
1532354055.8,286047002.8,N
1532354075.7,286047001.1,N
1532354095.5,286046998.3,N
1532354115.4,286047001.0,N
1532354135.2,286047002.8,N
1532354155.0,286047002.7,N
1532354155.9,286047002.7,N
1532354175.8,286047000.4,N
1532354195.6,286046998.3,N
1532354215.4,286047000.7,N
1532354235.3,286047001.9,N
1532354255.1,286047002.6,N
1532354275.9,286046998.2,N
1532354295.7,286047000.8,N
1532354315.5,286047002.4,N
1532354335.4,286047001.3,N
1532354355.2,286047003.1,N
1532354375.0,286047000.1,N
1532354375.9,286047000.1,N
1532354395.8,286047000.9,N
